Vorticity
3 3 3 5 6 8 8 12 6 8 7 12 6 2 1 2 11 2 -5 7 5 3 6 4 10 8 6 10 13 2 2 5 4 4 8 12 10 9 8 7 8 8 6
3 1 3 5 6 7 7 13 5 2 9 6 2 1 -1 12 11 -13 5 5 8 9 5 -1 1 5 4 4 3 22 15 7 7 12 -1 2 -6 -8 2 12 15 4 -0
3 2 2 4 4 4 6 7 7 4 8 -1 5 7 4 2 -6 23 9 8 22 -1 -1 3 11 21 16 19 21 15 17 11 10 4 24 19 20 23 -3 1 8 5 2
1 1 1 2 2 3 4 5 6 7 4 2 1 6 6 13 5 3 1 4 4 6 12 5 13 20 16 14 30 -4 -7 28 10 -9 -4 5 -4 -1 -0 -4 0 3 4
2 0 1 1 2 4 3 4 4 4 5 6 7 7 5 3 3 3 5 8 6 11 11 8 5 -13 1 0 -3 22 3 1 7 22 2 -1 -16 -5 0 3 3 2 2
5 2 1 0 4 -2 6 3 3 4 3 4 4 5 5 5 5 5 4 4 4 4 -7 -0 -5 6 3 -5 -20 -27 -15 -8 11 4 6 -1 -10 -11 4 5 3 8 10
6 2 3 2 -0 0 -1 1 2 2 4 2 8 6 4 4 4 4 5 5 5 5 7 6 7 2 12 -1 -13 -1 -3 -8 7 1 -6 -12 -8 -4 6 0 1 6 5
5 4 3 -5 1 1 9 7 7 9 9 9 13 15 4 3 2 1 2 3 6 6 4 4 4 5 5 8 -3 8 9 10 11 5 4 -2 2 7 5 5 7 5 4
4 0 3 7 5 8 14 9 9 13 11 12 11 8 13 13 9 7 13 6 0 8 5 6 7 7 7 6 6 6 5 5 5 6 7 8 5 5 5 5 5 6 5
-7 10 2 4 2 12 4 -1 12 12 12 9 7 5 8 8 6 10 2 3 4 5 3 6 6 4 7 7 10 8 6 5 7 9 8 7 7 7 6 7 6 5 5
21 -14 15 -5 2 6 6 12 8 2 8 9 11 9 6 5 9 9 3 11 9 2 5 6 4 3 5 7 7 7 11 10 11 10 7 7 7 9 10 7 7 8 7
-19 11 -32 17 -3 2 9 11 3 4 7 8 9 10 10 9 8 8 10 9 10 15 10 7 4 5 2 3 5 6 6 -4 21 11 12 9 8 8 7 7 7 7 8
-11 13 26 16 -5 4 5 5 -1 4 7 1 10 9 5 5 5 6 6 6 6 5 9 11 8 5 7 9 2 4 9 -6 3 -0 16 14 14 9 7 8 9 10 12
25 -4 13 23 -11 0 5 6 -1 6 7 2 7 12 11 7 5 7 7 7 7 7 9 9 6 4 9 3 11 7 2 5 -2 13 5 10 12 13 13 12 11 11 10
31 41 -10 -4 17 -31 12 1 3 4 3 4 6 13 9 15 2 6 7 9 9 9 10 11 14 9 5 8 5 4 -1 8 16 14 16 11 10 10 10 10 9 8 8
-17 8 23 43 -8 20 7 4 0 4 3 -4 4 5 6 1 9 2 8 7 6 9 10 11 10 6 11 7 5 11 11 10 13 11 12 12 10 9 8 8 8 9 9
17 -15 43 -44 41 33 2 8 4 1 8 5 8 3 4 -2 4 6 9 6 9 10 10 11 10 9 9 9 9 8 10 10 10 10 9 9 8 8 8 8 8 7 7
10 -1 -3 9 39 -40 7 10 4 -0 -6 15 19 -8 3 6 11 11 4 4 5 6 7 8 7 8 8 8 10 10 9 10 9 8 8 9 9 7 7 8 10 11 11
10 -7 23 9 2 54 -7 19 -3 4 0 1 -18 15 -4 6 16 8 4 2 8 10 9 9 9 9 9 10 9 9 10 10 8 7 8 9 11 11 11 11 11 11 12
-13 21 -16 24 29 3 5 13 13 2 17 2 -1 5 -1 1 12 3 3 9 12 12 12 11 11 11 11 11 10 9 9 10 10 10 10 11 11 11 11 11 11 11 10
10 19 24 -5 20 -19 23 14 7 -2 3 -2 6 -4 6 15 7 3 6 10 11 11 13 14 14 14 12 11 10 9 10 10 10 10 10 9 9 9 10 9 9 8 8
26 13 15 17 25 -23 29 20 8 12 3 5 23 18 28 9 6 6 10 12 15 16 14 10 8 8 8 8 9 9 10 9 9 8 9 9 8 8 7 8 8 9 8
10 12 9 8 19 26 19 0 3 29 9 12 18 15 6 7 5 12 16 16 10 8 8 7 7 7 8 8 8 8 8 8 8 8 8 9 8 8 8 8 8 8 11
25 20 14 18 12 11 18 16 19 19 15 15 13 11 7 11 18 15 12 10 7 6 5 6 6 8 8 8 7 7 7 7 9 9 8 8 9 9 10 12 13 14 15
9 17 19 10 10 12 12 18 19 15 14 14 10 7 12 12 10 8 5 4 4 5 8 9 10 10 9 8 8 8 9 9 10 10 11 10 12 12 13 12 11 9 7
14 12 12 17 17 18 20 15 14 13 10 12 18 17 8 7 5 4 4 5 7 9 10 9 8 8 8 8 9 9 10 9 9 9 10 11 13 11 8 6 7 9 10
Height
3182 3184 3187 3189 3191 3193 3194 3196 3198 3201 3203 3206 3208 3210 3212 3213 3215 3217 3219 3219 3219 3221 3222 3222 3222 3223 3223 3223 3223 3224 3224 3225 3226 3227 3228 3229 3229 3229 3229 3229 3229 3229 3228
3182 3184 3187 3189 3191 3193 3195 3197 3200 3202 3204 3207 3209 3211 3213 3213 3215 3217 3219 3219 3220 3221 3222 3222 3223 3223 3223 3223 3222 3222 3224 3225 3226 3227 3228 3229 3230 3230 3230 3229 3229 3229 3228
3180 3183 3186 3189 3192 3194 3197 3199 3201 3203 3205 3208 3210 3212 3213 3214 3215 3217 3218 3219 3219 3221 3223 3223 3222 3221 3221 3221 3221 3223 3224 3224 3225 3227 3227 3228 3229 3229 3230 3229 3229 3229 3228
3178 3182 3185 3188 3191 3194 3197 3199 3202 3204 3206 3208 3210 3212 3213 3214 3215 3217 3218 3219 3220 3222 3223 3224 3223 3222 3222 3221 3222 3222 3223 3224 3227 3228 3228 3228 3228 3228 3229 3229 3229 3228 3228
3177 3180 3184 3187 3190 3193 3196 3199 3201 3203 3205 3207 3210 3212 3213 3214 3216 3216 3218 3219 3219 3221 3221 3223 3224 3226 3226 3225 3223 3224 3225 3226 3229 3229 3229 3229 3228 3228 3229 3228 3227 3226 3225
3174 3178 3182 3185 3188 3191 3194 3197 3199 3202 3204 3206 3208 3209 3211 3213 3214 3215 3217 3218 3218 3220 3221 3222 3223 3225 3227 3228 3227 3225 3227 3228 3230 3230 3229 3229 3228 3226 3226 3226 3225 3225 3223
3171 3175 3179 3183 3186 3189 3192 3194 3196 3199 3201 3204 3206 3207 3208 3210 3212 3214 3215 3216 3218 3218 3220 3220 3221 3221 3222 3225 3226 3227 3226 3227 3229 3229 3228 3226 3225 3224 3222 3221 3220 3220 3220
3167 3172 3176 3180 3183 3187 3189 3192 3193 3195 3197 3198 3202 3204 3206 3209 3209 3210 3212 3213 3215 3216 3217 3218 3218 3218 3218 3219 3221 3222 3223 3223 3223 3223 3223 3222 3220 3219 3218 3218 3217 3216 3215
3163 3167 3172 3176 3180 3183 3186 3188 3190 3192 3193 3194 3196 3199 3201 3204 3206 3207 3208 3210 3212 3213 3213 3213 3214 3214 3214 3215 3215 3216 3217 3217 3218 3218 3217 3216 3213 3213 3213 3213 3213 3212 3210
3159 3163 3167 3172 3176 3179 3182 3185 3186 3188 3189 3191 3192 3194 3197 3199 3201 3203 3204 3206 3207 3208 3209 3209 3209 3209 3209 3210 3210 3210 3211 3211 3212 3211 3212 3210 3208 3207 3207 3207 3207 3205 3204
3155 3159 3164 3168 3172 3175 3178 3181 3183 3184 3185 3187 3189 3190 3192 3194 3196 3198 3200 3201 3202 3203 3204 3204 3205 3205 3204 3204 3204 3204 3204 3204 3204 3203 3203 3202 3200 3200 3200 3200 3200 3200 3198
3148 3154 3156 3163 3167 3170 3173 3176 3178 3180 3182 3184 3185 3186 3188 3190 3192 3193 3194 3195 3196 3197 3198 3199 3199 3199 3199 3198 3198 3198 3197 3196 3198 3198 3197 3196 3194 3193 3192 3192 3192 3192 3190
3141 3147 3153 3157 3160 3165 3168 3170 3173 3175 3177 3179 3180 3182 3184 3185 3187 3188 3190 3191 3192 3192 3192 3193 3194 3194 3194 3194 3193 3193 3192 3190 3190 3189 3189 3188 3186 3185 3184 3183 3183 3182 3182
3134 3137 3144 3148 3152 3158 3161 3165 3167 3169 3172 3174 3175 3177 3179 3181 3183 3184 3185 3186 3186 3187 3187 3188 3188 3188 3188 3188 3188 3188 3186 3184 3183 3183 3182 3181 3179 3178 3177 3176 3174 3174 3173
3127 3131 3133 3141 3143 3148 3154 3158 3161 3163 3166 3168 3170 3172 3174 3176 3178 3179 3179 3180 3181 3181 3181 3181 3181 3181 3181 3181 3182 3181 3179 3178 3176 3175 3174 3174 3172 3172 3170 3170 3168 3167 3166
3118 3123 3128 3131 3136 3139 3144 3149 3153 3158 3160 3162 3164 3166 3167 3170 3171 3172 3173 3173 3174 3174 3174 3174 3174 3175 3174 3174 3174 3174 3172 3171 3169 3168 3167 3166 3166 3165 3164 3164 3162 3161 3159
3112 3116 3121 3125 3128 3132 3137 3141 3145 3150 3153 3154 3156 3159 3160 3162 3164 3165 3166 3166 3167 3167 3168 3168 3168 3168 3167 3168 3167 3166 3165 3164 3163 3162 3161 3160 3159 3158 3157 3157 3155 3154 3152
3106 3111 3113 3118 3119 3124 3129 3132 3135 3141 3145 3147 3149 3151 3153 3155 3156 3158 3159 3159 3160 3160 3161 3161 3160 3160 3160 3160 3159 3159 3158 3157 3156 3155 3154 3153 3152 3151 3150 3149 3148 3146 3145
3097 3102 3106 3109 3113 3116 3119 3124 3128 3132 3136 3138 3141 3144 3145 3146 3148 3150 3151 3152 3153 3153 3153 3153 3153 3152 3152 3152 3152 3151 3151 3150 3149 3148 3147 3146 3145 3144 3143 3141 3140 3138 3136
3090 3093 3097 3100 3104 3108 3110 3115 3119 3123 3127 3129 3132 3135 3137 3139 3140 3143 3144 3144 3145 3145 3146 3146 3145 3145 3145 3145 3145 3144 3144 3143 3143 3142 3141 3139 3138 3136 3135 3134 3132 3131 3130
3081 3084 3088 3092 3094 3099 3103 3105 3108 3112 3116 3119 3123 3127 3129 3131 3133 3135 3136 3136 3136 3137 3137 3137 3138 3138 3138 3138 3138 3138 3137 3136 3136 3135 3133 3132 3130 3129 3128 3126 3125 3123 3122
3073 3075 3080 3084 3089 3092 3093 3097 3100 3104 3108 3111 3115 3118 3120 3123 3125 3127 3128 3129 3129 3130 3130 3131 3131 3131 3131 3131 3131 3131 3131 3130 3129 3129 3127 3125 3124 3122 3121 3119 3118 3116 3114
3062 3067 3071 3075 3078 3082 3086 3090 3093 3096 3099 3103 3107 3111 3113 3115 3118 3119 3120 3121 3122 3123 3124 3124 3125 3125 3124 3124 3124 3124 3124 3123 3121 3120 3120 3120 3117 3115 3113 3111 3110 3107 3106
3054 3058 3062 3065 3069 3073 3077 3081 3085 3088 3092 3095 3100 3102 3105 3108 3111 3112 3114 3116 3117 3118 3118 3118 3117 3117 3117 3117 3117 3117 3116 3115 3114 3113 3112 3113 3111 3109 3106 3103 3101 3099 3097
3047 3049 3053 3058 3061 3065 3069 3072 3077 3081 3085 3089 3092 3095 3098 3103 3105 3107 3109 3109 3110 3111 3111 3111 3110 3110 3110 3110 3110 3110 3109 3108 3107 3107 3104 3102 3102 3100 3099 3096 3094 3092 3090
3040 3044 3048 3050 3054 3057 3062 3068 3072 3075 3078 3082 3085 3088 3093 3098 3099 3100 3102 3103 3103 3104 3104 3103 3103 3103 3104 3103 3104 3103 3102 3101 3100 3099 3097 3096 3094 3092 3091 3090 3089 3086 3083